Weather History for LTBD - August, 2013

Change the Weather History Date:

Tuesday, August 27, 2013

  Actual Average (LTBJ) Record (LTBJ)
Temperature  
Mean Temperature 84 °F -  
Max Temperature 99 °F 90 °F 100 °F (2004)
Min Temperature 69 °F 67 °F 57 °F (1997)
Cooling Degree Days 18    
Growing Degree Days 34 (Base 50)    
Moisture  
Dew Point 56 °F    
Average Humidity 40    
Maximum Humidity 83    
Minimum Humidity 14    
Precipitation  
Precipitation 0.00 in - - ()
Sea Level Pressure  
Sea Level Pressure 29.81 in    
Wind  
Wind Speed 5 mph ()    
Max Wind Speed 15 mph    
Max Gust Speed -    
Visibility 12.0 miles    
Events      
Averages and records for this station are not official NWS values.
T = Trace of Precipitation, MM = Missing Value Source: Averaged Metar Reports

Daily Weather History Graph

Daily Weather History Graph

Search for Another Location

Airport or City:

Trip Planner

Search our weather history database for the weather conditions in past years. The results will help you decide how hot, cold, wet, or windy it might be!

Date:

Astronomy

Aug. 27, 2013 Rise Set
Actual Time 6:34 AM EEST 7:45 PM EEST
Civil Twilight 6:07 AM EEST 8:12 PM EEST
Nautical Twilight 5:34 AM EEST 8:44 PM EEST
Astronomical Twilight 5:00 AM EEST 9:18 PM EEST
Moon 11:32 PM EEST (8/27) 1:06 PM EEST (8/27)
Length of Visible Light 14h 05m
Length of Day
13h 11m
Waning Gibbous, 60% of the Moon is Illuminated
Aug 27
Waning Gibbous
Aug 28
Last Quarter
Sep 5
New
Sep 12
First Quarter
Sep 19
Full

Hourly Weather History & Observations

Time (EEST) Temp. Heat Index Dew Point Humidity Pressure Visibility Wind Dir Wind Speed Gust Speed Precip Events Conditions
3:00 AM 72 °F - 56 °F 47% 29.83 in - East 2.3 mph - -  
6:18 AM 64.4 °F - 59.0 °F 83% 29.83 in - East 3.5 mph - N/A   Clear
6:50 AM 64.4 °F - 59.0 °F 83% 29.86 in - ENE 3.5 mph - N/A   Clear
7:50 AM 68.0 °F - 59.0 °F 73% 29.86 in - NE 2.3 mph - N/A   Clear
8:50 AM 73.4 °F - 59.0 °F 61% 29.86 in - ENE 4.6 mph - N/A   Clear
9:00 AM 75 °F - 56 °F 41% 29.86 in 12 mi ESE 2.3 mph - -  
9:50 AM 78.8 °F - 55.4 °F 44% 29.86 in - East 5.8 mph - N/A   Clear
10:50 AM 84.2 °F 83.0 °F 55.4 °F 37% 29.86 in - East 5.8 mph - N/A   Clear
11:50 AM 87.8 °F 86.5 °F 57.2 °F 35% 29.83 in - East 2.3 mph - N/A   Clear
12:50 PM 91.4 °F 89.4 °F 55.4 °F 29% 29.80 in - WSW 5.8 mph - N/A   Clear
1:50 PM 93.2 °F 92.6 °F 59.0 °F 32% 29.80 in - West 8.1 mph - N/A   Clear
2:50 PM 96.8 °F 94.4 °F 53.6 °F 23% 29.77 in - West 10.4 mph - N/A   Clear
3:00 PM 98 °F - 53 °F 14% 29.78 in 12 mi SW 4.6 mph - -  
3:50 PM 96.8 °F 94.4 °F 53.6 °F 23% 29.74 in - WSW 12.7 mph - N/A   Clear
4:50 PM 95.0 °F 93.7 °F 57.2 °F 28% 29.74 in - West 13.8 mph - N/A   Clear
6:00 PM 93 °F - 54 °F 17% 29.76 in 12 mi WSW 5.8 mph - -  
6:50 PM 87.8 °F 85.7 °F 53.6 °F 31% 29.74 in - West 15.0 mph - N/A   Clear
7:50 PM 84.2 °F 83.0 °F 55.4 °F 37% 29.77 in - SW 5.8 mph - N/A   Clear
9:00 PM 83 °F - 52 °F 24% 29.80 in 12 mi WNW 6.7 mph - -